Temperature
16 16 16 16 16 15 15 15 15 15 15 14 14 14 14 14 13 13 13 13 13 12 12 12 12 12 12 12 12 12 12 12 12 12 11 11 11 11 11 11 10 10 10
16 15 15 15 15 15 15 15 14 14 14 14 14 14 14 13 13 13 13 13 12 12 12 12 12 12 12 12 12 12 12 12 11 11 11 11 11 11 10 10 10 10 10
15 15 15 15 14 14 14 14 14 14 14 14 13 13 13 13 13 13 12 12 12 12 12 12 12 11 11 11 11 11 11 11 11 11 11 11 10 10 10 10 9 9 9
14 14 14 14 14 14 13 13 13 13 13 13 13 13 12 12 12 12 12 12 12 12 12 12 11 11 11 11 11 11 11 11 11 11 10 10 10 10 9 9 9 9 8
14 14 14 14 14 13 13 13 13 13 13 13 12 12 12 12 12 12 12 12 12 12 12 12 11 11 11 11 11 10 10 10 10 10 10 9 9 9 9 8 8 8 8
14 14 14 14 14 13 13 13 13 13 13 12 12 12 12 12 12 12 12 12 12 12 12 12 11 11 11 11 10 10 10 9 10 10 10 9 9 8 8 8 7 7 7
14 14 14 14 13 13 13 13 13 13 13 12 12 12 12 12 12 12 12 12 12 12 12 11 11 11 11 10 10 10 9 9 9 9 9 9 8 8 7 7 7 6 6
14 14 14 14 13 13 13 13 13 12 12 12 12 11 11 11 12 12 12 12 12 12 11 11 11 11 10 10 10 9 9 8 8 8 8 8 7 7 7 6 6 6 6
14 14 13 13 13 13 13 13 13 12 12 12 12 11 11 11 11 11 11 11 11 11 11 11 11 10 10 10 9 9 8 8 8 7 7 7 6 6 6 5 5 5 5
13 13 13 13 13 13 13 13 13 12 12 11 11 11 11 10 10 10 10 10 10 10 10 10 10 10 10 9 9 8 8 7 7 7 6 6 6 5 5 5 5 5 5
13 13 13 13 12 12 12 12 12 12 12 11 11 11 10 10 10 9 9 9 9 9 9 9 9 9 9 9 8 8 7 7 6 6 6 5 5 5 5 4 4 4 4
12 12 12 12 12 12 12 11 11 11 11 11 10 10 10 9 9 9 9 8 8 8 9 9 9 9 8 8 8 7 7 6 6 6 5 5 5 5 4 4 4 4 4
11 11 11 11 11 11 10 10 10 10 10 10 10 9 9 9 8 8 8 8 8 8 8 8 8 8 8 7 7 7 6 6 5 5 5 5 5 4 4 4 4 4 3
10 10 10 10 10 9 9 9 9 9 9 9 9 9 8 8 8 8 7 7 7 7 7 7 7 7 7 7 6 6 6 5 5 4 4 4 4 4 4 3 3 3 3
9 9 8 8 8 8 8 8 8 8 8 8 8 8 8 7 7 7 7 7 6 6 6 6 6 6 6 6 5 5 5 4 4 4 4 3 3 3 3 3 2 2 2
7 7 7 7 7 7 7 7 8 8 7 7 7 7 7 6 6 6 6 6 6 5 5 5 5 4 5 4 4 4 4 4 3 3 3 3 3 2 2 2 2 2 1
7 7 7 7 7 7 7 7 7 7 7 7 6 6 6 6 6 5 5 5 5 5 4 4 4 4 4 4 3 3 3 3 2 2 2 2 2 1 1 1 1 1 1
6 6 6 6 6 6 6 6 6 6 6 6 6 5 5 5 5 5 5 4 4 4 4 3 3 3 3 2 2 2 2 2 1 1 1 1 1 0 0 0 0 -0 -0
5 5 5 5 5 5 5 5 5 5 5 5 5 4 4 4 4 4 4 3 3 3 3 3 2 2 2 2 1 1 1 1 1 1 0 0 0 -0 -0 -0 -1 -1 -1
5 5 5 5 5 5 4 4 4 4 4 4 3 3 3 3 3 3 2 2 2 2 2 2 2 1 1 1 0 0 0 0 -0 -0 -0 -1 -1 -1 -1 -1 -1 -2 -2
4 4 4 4 4 4 3 3 3 3 3 3 2 2 2 2 2 2 1 1 1 1 1 1 1 0 -0 -0 -1 -1 -1 -1 -1 -1 -1 -2 -2 -2 -2 -2 -2 -2 -2
3 3 3 3 3 3 2 2 2 2 2 2 1 1 1 1 1 0 0 0 0 0 -0 -0 -1 -1 -1 -2 -2 -2 -2 -2 -2 -3 -2 -2 -2 -2 -2 -2 -2 -2 -3
2 2 2 2 2 2 2 2 2 1 1 1 1 0 0 0 -0 -0 -1 -1 -1 -1 -2 -2 -2 -2 -3 -3 -3 -4 -4 -4 -4 -4 -4 -3 -3 -3 -3 -3 -3 -3 -3
2 2 1 1 1 1 1 1 1 1 0 0 -0 -0 -1 -1 -1 -1 -2 -2 -2 -2 -3 -3 -4 -4 -4 -4 -4 -5 -5 -5 -4 -5 -5 -4 -4 -4 -4 -3 -3 -3 -3
1 1 1 1 1 1 0 0 0 0 -0 -0 -1 -1 -1 -2 -2 -3 -3 -3 -3 -4 -4 -4 -5 -5 -5 -5 -5 -5 -5 -5 -5 -5 -5 -5 -4 -4 -4 -3 -3 -3 -4
1 0 0 0 0 0 -0 -0 -0 -1 -1 -1 -1 -2 -2 -3 -3 -3 -3 -4 -4 -4 -4 -5 -5 -5 -5 -5 -5 -5 -6 -6 -6 -6 -6 -6 -5 -5 -5 -4 -4 -4 -5
Wind_Speed
6 6 6 7 7 8 7 6 6 6 5 5 5 5 6 8 9 10 12 13 13 12 11 10 10 9 8 7 6 6 5 5 4 4 4 4 4 4 4 4 5 5 5
9 7 6 7 9 10 10 9 8 6 6 5 6 7 8 9 10 12 14 15 15 15 14 13 12 12 11 10 9 8 8 7 7 6 5 5 4 4 4 4 4 4 4
12 10 6 6 10 12 11 9 7 6 5 5 5 7 8 10 11 13 15 16 16 17 18 17 16 15 14 13 12 11 11 10 9 8 8 7 6 5 4 4 3 3 3
14 11 7 7 11 11 9 5 4 5 6 5 6 6 6 8 11 13 14 15 16 17 19 20 20 18 17 16 15 14 14 13 11 11 10 9 8 7 6 5 4 3 2
14 12 9 9 11 8 7 6 6 5 6 7 7 7 6 6 8 10 11 15 17 18 19 21 23 22 21 19 18 17 16 15 14 13 12 11 10 9 8 7 6 5 4
11 12 9 9 9 6 6 6 7 7 6 6 6 6 6 6 5 6 9 12 15 18 19 19 20 21 23 22 21 20 19 18 17 16 15 13 12 11 10 9 8 6 5
7 8 6 6 6 7 8 8 7 7 7 4 3 4 5 6 7 7 7 7 10 14 16 18 18 18 18 22 24 23 21 20 19 18 17 16 15 13 12 11 9 8 7
4 5 5 4 5 6 7 7 7 4 4 5 4 3 4 4 5 7 6 7 8 9 11 15 16 17 17 17 20 24 23 22 21 20 19 17 16 15 14 13 11 10 8
3 3 4 4 3 5 6 7 7 7 6 5 6 5 4 5 3 3 4 5 5 5 6 9 13 16 17 18 18 21 23 24 23 21 20 19 18 17 15 14 12 11 10
4 4 3 3 3 3 5 5 5 6 6 6 4 6 7 4 4 4 3 3 3 5 5 5 8 12 15 16 17 19 20 22 24 22 21 19 18 18 17 16 14 12 10
6 6 5 3 3 3 3 4 4 5 5 6 5 4 5 5 5 6 6 4 2 3 3 4 4 7 10 13 14 17 19 21 23 24 22 20 19 18 17 16 15 12 11
3 6 6 5 4 3 3 3 3 4 4 5 5 4 4 4 4 6 7 5 4 3 2 2 2 4 6 8 11 14 17 20 21 22 22 21 19 17 16 13 12 10 8
3 5 5 4 4 4 4 3 3 3 3 3 4 3 4 4 3 4 5 5 4 2 2 1 1 3 4 5 7 11 14 17 19 20 21 20 18 14 11 10 9 9 8
3 4 5 5 6 6 5 4 3 3 3 2 3 2 1 1 1 2 3 3 4 3 2 3 1 3 4 4 6 7 10 13 15 17 18 16 12 10 9 7 6 7 5
4 5 6 6 6 7 6 5 4 5 5 5 5 5 4 4 3 3 2 1 3 4 3 1 2 3 5 4 4 3 4 6 8 10 10 8 6 5 4 4 5 4 3
5 5 6 6 7 7 7 6 6 6 7 7 6 7 7 5 5 5 4 3 2 2 2 2 2 3 4 4 5 5 3 2 2 3 3 1 1 2 2 1 1 3 4
6 6 6 7 7 8 7 7 8 8 8 8 8 8 8 7 6 6 5 5 4 3 1 1 2 3 3 4 5 6 7 7 7 6 5 4 4 2 1 1 3 5 7
6 6 6 7 8 8 8 8 9 9 9 9 9 9 9 7 8 7 6 6 5 4 2 1 3 3 4 3 3 4 6 7 8 8 7 5 3 2 2 3 4 6 7
6 7 7 8 8 8 8 8 9 9 9 9 9 9 8 7 8 6 6 6 5 4 4 3 2 3 3 3 3 4 5 6 6 7 7 6 5 4 4 4 5 7 8
6 7 7 7 7 8 8 8 8 9 9 9 9 8 7 6 6 5 6 5 5 5 5 4 3 3 3 3 3 3 3 4 4 6 6 6 6 6 6 7 8 9 10
7 6 7 7 6 6 7 7 7 8 8 8 8 8 8 9 10 7 5 4 5 4 4 4 3 3 3 3 3 2 2 2 3 3 3 4 5 6 8 8 9 10 11
6 7 7 7 7 7 11 12 9 7 7 7 7 6 7 8 10 12 12 11 8 5 3 3 3 3 2 2 2 2 2 2 2 3 3 4 3 4 6 7 8 9 11
6 7 6 6 6 7 11 12 12 7 6 6 6 5 5 6 7 5 8 11 11 11 8 3 2 1 1 1 1 1 1 1 2 3 2 3 3 3 5 7 10 11 11
5 5 5 5 5 6 10 10 10 7 6 5 4 4 4 5 3 4 5 5 6 6 5 3 2 1 1 2 2 1 1 1 3 2 1 2 3 3 4 9 10 7 5
4 4 4 5 5 4 7 8 8 4 4 4 4 4 3 4 6 6 4 4 4 4 6 6 5 4 5 3 0 1 1 2 3 2 1 1 3 3 4 4 6 6 5
4 4 4 3 3 3 4 6 6 3 3 2 3 4 6 5 6 5 3 2 3 3 3 4 5 6 6 6 5 2 2 1 1 3 2 1 2 3 4 3 3 6 8
Wind_Direction
202 210 218 222 225 226 225 228 235 245 255 261 260 251 250 247 244 241 242 243 242 240 238 231 223 220 219 219 216 212 210 207 197 190 183 172 160 149 137 125 113 104 97
209 211 219 223 228 228 229 228 232 237 247 252 258 252 248 247 245 243 243 243 242 239 237 235 232 228 226 225 223 219 218 217 213 209 205 199 191 180 166 151 137 124 111
216 215 218 224 231 232 230 231 237 238 244 245 250 252 247 243 242 241 241 240 240 238 235 236 235 233 230 229 226 223 220 220 219 218 215 211 207 201 194 185 174 158 140
220 217 219 228 232 228 220 219 220 229 238 238 246 247 242 241 241 241 238 236 235 235 234 234 234 233 231 231 230 226 222 220 221 222 221 218 215 212 209 205 203 198 189
222 218 223 229 226 219 217 223 221 217 234 237 241 247 242 239 240 238 232 232 231 231 230 231 233 233 231 231 232 230 226 220 219 220 223 223 220 220 219 216 215 215 218
227 222 227 227 218 216 222 222 229 224 231 239 246 253 247 241 236 234 236 235 232 231 231 231 232 234 232 230 232 233 230 224 219 219 220 223 223 223 223 222 221 222 228
234 226 231 226 215 221 226 223 224 229 236 220 235 269 264 241 237 238 233 234 236 235 232 232 232 232 233 232 231 233 233 230 224 220 220 221 223 223 224 224 223 225 230
250 239 239 238 225 228 233 228 216 222 226 187 196 238 285 291 255 239 231 233 238 234 232 234 232 232 232 231 230 230 231 233 231 225 221 221 223 223 224 225 225 227 231
299 276 262 255 242 234 241 238 224 225 238 218 202 213 240 253 284 277 245 240 240 234 236 237 234 235 235 233 233 232 230 230 232 232 227 222 223 224 226 227 229 231 233
358 340 313 289 268 253 251 250 238 232 235 242 217 224 235 236 252 289 275 261 247 243 244 240 240 239 237 235 234 233 233 231 234 236 235 229 225 225 227 228 229 230 232
15 10 360 343 314 288 275 269 260 244 238 243 230 215 230 236 231 253 273 267 277 258 251 248 250 245 240 236 236 235 233 234 236 239 239 237 235 234 229 228 227 227 229
8 10 7 4 352 332 312 296 282 266 255 250 243 221 211 215 219 230 256 258 257 259 263 267 265 264 255 246 241 239 235 236 238 240 239 236 236 240 239 232 227 228 227
5 359 1 359 356 349 341 333 324 308 290 273 261 247 234 235 224 226 250 265 258 259 274 282 305 311 291 276 261 250 241 240 240 242 242 240 235 232 234 235 239 235 238
7 358 7 14 11 7 5 6 11 2 2 350 341 332 305 308 285 250 244 257 272 265 264 271 10 4 341 319 291 268 252 244 243 244 245 244 236 232 233 234 245 251 253
24 22 25 28 24 21 19 23 35 30 38 37 32 33 35 22 20 9 350 286 259 275 277 309 8 9 356 346 327 308 274 254 251 251 251 247 246 239 213 226 243 246 254
33 35 36 36 34 31 31 42 46 45 54 44 41 48 44 27 29 23 20 15 358 281 275 48 32 4 357 6 17 31 25 11 344 307 286 269 126 108 130 182 236 254 257
44 45 45 47 47 43 42 52 55 54 60 53 47 52 48 39 38 28 27 30 24 9 300 60 43 13 14 20 24 35 40 44 39 37 44 60 72 77 85 264 271 269 267
53 54 55 57 56 53 52 59 62 60 63 61 54 55 49 48 46 36 35 34 26 15 21 40 33 20 26 23 32 38 40 46 44 40 40 40 36 7 317 290 282 279 277
62 61 62 62 60 59 60 62 68 68 66 64 59 59 54 54 51 44 41 35 24 25 33 69 47 30 30 31 41 43 43 37 35 29 27 21 11 353 328 304 292 284 281
67 65 66 68 68 67 65 67 71 70 67 63 57 55 53 56 58 51 45 34 35 39 42 58 55 39 34 26 40 37 32 25 18 14 16 12 2 346 329 310 295 288 284
71 66 66 65 69 74 73 73 71 72 70 65 55 46 46 52 56 60 59 46 46 46 44 49 44 35 25 23 22 10 25 7 9 10 353 343 330 318 310 304 293 283 277
73 69 64 62 62 72 79 80 81 69 66 63 54 39 41 45 49 49 52 50 51 57 54 52 40 41 14 7 9 21 23 17 343 351 351 311 311 298 296 296 292 286 278
83 75 65 60 59 72 80 83 84 79 70 63 56 43 38 37 50 44 46 46 40 45 56 95 79 38 346 326 18 13 12 341 277 298 344 304 319 298 294 300 305 295 283
93 83 72 64 58 68 80 85 89 78 71 59 50 44 35 10 33 69 55 39 28 24 37 57 109 233 241 237 201 193 219 286 288 292 252 290 316 298 300 307 311 301 274
106 95 84 73 61 52 79 91 95 80 66 46 28 24 22 354 14 50 64 40 21 4 17 31 32 22 9 353 21 102 30 8 327 311 347 289 310 309 301 302 319 334 337
125 113 92 74 60 27 69 95 107 101 78 42 17 5 7 5 11 34 88 50 6 339 354 3 12 17 21 25 37 73 144 154 271 297 312 328 317 338 322 299 296 303 306
Height
1562 1563 1564 1565 1565 1566 1566 1566 1567 1567 1567 1567 1567 1567 1567 1567 1568 1568 1568 1568 1568 1568 1568 1568 1567 1566 1566 1565 1565 1564 1564 1564 1563 1563 1563 1563 1563 1563 1563 1563 1563 1563 1563
1561 1562 1562 1563 1563 1564 1564 1564 1564 1564 1564 1565 1565 1565 1565 1565 1565 1565 1565 1566 1566 1566 1566 1565 1565 1565 1564 1563 1563 1563 1562 1562 1562 1562 1562 1562 1562 1562 1562 1562 1562 1562 1562
1559 1559 1560 1561 1561 1562 1562 1562 1562 1561 1562 1562 1562 1562 1562 1562 1562 1562 1562 1562 1562 1563 1563 1563 1562 1562 1562 1561 1561 1560 1560 1560 1560 1560 1560 1560 1560 1560 1560 1560 1560 1561 1561
1556 1557 1557 1558 1559 1559 1559 1559 1558 1558 1558 1558 1558 1559 1559 1559 1558 1558 1558 1558 1558 1559 1559 1559 1559 1559 1559 1558 1558 1558 1557 1557 1557 1557 1557 1558 1558 1558 1558 1559 1559 1559 1559
1553 1554 1554 1554 1555 1555 1555 1555 1555 1555 1555 1554 1554 1554 1554 1554 1554 1554 1554 1554 1554 1554 1554 1554 1555 1555 1554 1555 1555 1554 1554 1554 1554 1554 1554 1555 1555 1555 1556 1556 1556 1557 1557
1550 1550 1550 1550 1551 1551 1551 1551 1551 1551 1550 1550 1549 1548 1548 1548 1548 1548 1548 1548 1548 1548 1548 1549 1549 1549 1550 1550 1550 1550 1550 1550 1550 1550 1551 1551 1552 1552 1552 1553 1553 1554 1554
1545 1546 1546 1546 1546 1546 1546 1546 1546 1546 1545 1545 1544 1542 1542 1542 1541 1542 1542 1542 1542 1542 1542 1543 1543 1543 1544 1544 1545 1545 1545 1546 1545 1545 1546 1547 1548 1548 1549 1549 1550 1550 1551
1540 1541 1541 1541 1541 1541 1541 1541 1541 1540 1540 1540 1539 1538 1535 1535 1534 1535 1535 1535 1535 1535 1535 1536 1536 1537 1537 1537 1538 1539 1539 1540 1540 1540 1540 1541 1542 1543 1545 1545 1546 1547 1547
1535 1535 1535 1535 1535 1535 1535 1535 1535 1535 1534 1534 1534 1534 1532 1528 1528 1528 1529 1529 1529 1529 1529 1530 1529 1530 1530 1530 1531 1532 1532 1533 1533 1534 1534 1535 1536 1538 1539 1541 1542 1542 1543
1530 1530 1529 1529 1529 1529 1529 1529 1529 1529 1528 1528 1528 1528 1528 1526 1525 1522 1522 1524 1524 1524 1523 1523 1523 1523 1523 1523 1523 1524 1524 1525 1526 1527 1528 1528 1529 1531 1533 1535 1536 1537 1538
1524 1524 1523 1523 1523 1523 1523 1523 1523 1523 1522 1522 1522 1522 1521 1521 1520 1519 1516 1517 1517 1517 1517 1517 1516 1516 1516 1516 1516 1516 1516 1517 1518 1519 1521 1522 1523 1525 1526 1528 1529 1531 1532
1519 1518 1518 1517 1517 1517 1517 1516 1516 1516 1516 1516 1516 1516 1516 1515 1514 1514 1511 1510 1510 1511 1511 1511 1510 1510 1509 1509 1508 1508 1509 1509 1510 1511 1513 1514 1516 1518 1520 1521 1522 1524 1525
1514 1513 1512 1512 1512 1511 1511 1511 1510 1510 1510 1510 1510 1510 1510 1509 1509 1509 1507 1505 1504 1504 1504 1505 1504 1504 1503 1502 1502 1501 1501 1502 1503 1504 1506 1508 1510 1511 1513 1514 1516 1518 1519
1509 1508 1508 1507 1507 1506 1506 1506 1505 1505 1505 1504 1504 1504 1504 1504 1504 1503 1502 1501 1499 1498 1498 1499 1498 1498 1497 1496 1495 1495 1495 1495 1496 1498 1500 1502 1503 1504 1506 1508 1510 1512 1513
1505 1505 1504 1503 1503 1502 1502 1501 1501 1500 1500 1500 1499 1499 1499 1498 1498 1498 1497 1497 1497 1494 1493 1493 1493 1492 1491 1490 1490 1489 1489 1489 1490 1492 1494 1496 1497 1499 1500 1502 1504 1506 1507
1502 1501 1501 1500 1499 1499 1498 1498 1497 1496 1496 1496 1495 1495 1494 1494 1493 1493 1492 1492 1491 1491 1490 1489 1488 1487 1486 1486 1485 1485 1485 1485 1486 1488 1489 1491 1492 1494 1495 1497 1498 1500 1501
1499 1499 1498 1497 1496 1496 1495 1494 1494 1493 1493 1492 1492 1492 1491 1490 1490 1489 1489 1488 1487 1487 1486 1485 1484 1483 1482 1482 1481 1481 1481 1482 1483 1484 1485 1487 1488 1489 1491 1492 1493 1494 1495
1497 1496 1496 1495 1494 1493 1493 1492 1491 1491 1490 1490 1489 1489 1488 1488 1487 1486 1486 1485 1484 1483 1483 1482 1481 1480 1479 1479 1479 1479 1479 1479 1480 1481 1482 1483 1484 1485 1486 1487 1488 1488 1489
1495 1494 1493 1493 1492 1491 1491 1490 1490 1489 1488 1488 1487 1487 1486 1486 1485 1484 1483 1483 1482 1481 1480 1479 1478 1478 1477 1477 1476 1476 1476 1477 1477 1478 1478 1479 1480 1480 1481 1481 1482 1483 1483
1493 1492 1492 1491 1491 1490 1489 1489 1488 1488 1487 1486 1486 1486 1485 1484 1484 1483 1482 1481 1480 1479 1478 1478 1477 1476 1475 1475 1475 1475 1474 1474 1474 1475 1475 1475 1475 1475 1475 1476 1476 1477 1477
1491 1491 1491 1490 1490 1489 1489 1488 1487 1487 1486 1486 1485 1485 1484 1483 1482 1482 1481 1480 1479 1478 1477 1476 1475 1474 1474 1473 1473 1472 1472 1472 1472 1472 1471 1471 1471 1471 1471 1470 1471 1471 1471
1490 1490 1490 1490 1489 1489 1488 1488 1487 1487 1486 1486 1485 1484 1483 1483 1481 1480 1479 1478 1477 1476 1475 1474 1473 1473 1472 1472 1471 1471 1470 1470 1469 1469 1468 1468 1467 1467 1466 1466 1466 1466 1466
1490 1489 1489 1489 1489 1488 1488 1487 1487 1486 1486 1485 1484 1483 1482 1481 1480 1479 1478 1476 1475 1474 1474 1473 1472 1471 1471 1470 1470 1469 1468 1468 1467 1466 1465 1464 1464 1463 1462 1462 1461 1461 1462
1489 1489 1489 1489 1488 1488 1487 1487 1486 1486 1485 1484 1483 1482 1481 1480 1479 1477 1476 1475 1474 1473 1472 1471 1471 1470 1470 1469 1468 1468 1467 1466 1465 1464 1463 1461 1461 1460 1459 1458 1458 1458 1458
1488 1488 1488 1488 1488 1488 1487 1486 1486 1485 1484 1483 1482 1481 1480 1479 1477 1476 1475 1474 1473 1472 1471 1470 1470 1469 1468 1468 1467 1466 1465 1464 1463 1462 1461 1460 1458 1457 1456 1455 1454 1454 1453
1487 1487 1487 1487 1487 1487 1486 1485 1485 1484 1483 1482 1481 1480 1479 1477 1476 1475 1474 1473 1472 1471 1470 1469 1469 1468 1467 1466 1465 1465 1464 1462 1461 1460 1458 1458 1456 1454 1452 1451 1451 1451 1450